PA3EUZ Weather Reports


time (UTC)temp
F
wind
direction
speed
knots
gust
knots
rain 1hr
in
rain 24hr
in
rain mn
in
humidity
%
barometer
mb
20260506203036 53 0.0 0.0 0.00 0.00 0.00 69 1012.1
20260506201516 53 0.0 0.0 0.00 0.00 0.00 68 1012.1
20260506200016 53 0.0 0.0 0.00 0.00 0.00 67 1012.0
20260506194536 53 0.0 0.0 0.00 0.00 0.00 66 1011.8
20260506193017 54 0.0 0.0 0.00 0.00 0.00 66 1011.7
20260506191556 54 0.0 0.0 0.00 0.00 0.00 64 1011.6
20260506190017 54 0.0 5.2 0.00 0.00 0.00 64 1011.4
20260506184516 54 113 0.9 6.1 0.00 0.00 0.00 65 1011.2
20260506183016 54 90 1.7 7.8 0.00 0.00 0.00 64 1011.1
20260506181536 54 90 1.7 7.8 0.00 0.00 0.00 64 1011.0
20260506180016 55 68 1.7 7.8 0.00 0.00 0.00 63 1010.7
20260506174516 55 68 1.7 7.0 0.00 0.00 0.00 62 1010.6
20260506173036 56 68 1.7 11.3 0.00 0.00 0.00 61 1010.4
20260506171516 56 68 2.6 12.2 0.00 0.00 0.00 59 1010.2
20260506170016 57 45 2.6 8.7 0.00 0.00 0.00 58 1010.1
20260506164516 58 45 3.5 10.4 0.00 0.00 0.00 56 1010.0
20260506163016 59 68 4.3 12.2 0.00 0.00 0.00 53 1009.9
20260506161536 59 68 2.6 9.6 0.00 0.00 0.00 53 1009.8
20260506160016 58 68 2.6 8.7 0.00 0.00 0.00 54 1009.8
20260506154516 58 68 1.7 8.7 0.00 0.00 0.00 56 1009.8
20260506153016 58 45 1.7 7.0 0.00 0.00 0.00 57 1009.8
20260506151516 59 45 1.7 8.7 0.00 0.00 0.00 59 1009.7
20260506150036 60 68 1.7 10.4 0.00 0.00 0.00 58 1009.7
20260506144516 60 45 1.7 10.4 0.00 0.00 0.00 59 1009.5
20260506143016 59 0 2.6 8.7 0.00 0.00 0.00 58 1009.5
20260506141516 58 23 0.9 7.0 0.00 0.00 0.00 62 1009.6
20260506140016 58 23 0.9 6.1 0.00 0.00 0.00 63 1009.7
20260506134536 57 23 1.7 6.1 0.00 0.00 0.00 62 1009.6
20260506133016 57 23 1.7 7.8 0.00 0.00 0.00 61 1009.6
20260506131516 58 45 2.6 7.8 0.00 0.00 0.00 62 1009.6
20260506130036 58 23 2.6 9.6 0.00 0.00 0.00 61 1009.5
20260506124516 59 0 1.7 8.7 0.00 0.00 0.00 61 1009.3
20260506123016 59 23 1.7 7.8 0.00 0.00 0.00 63 1009.2
20260506121516 59 23 1.7 7.0 0.00 0.00 0.00 60 1009.3
20260506120016 59 23 1.7 6.1 0.00 0.00 0.00 60 1009.2
20260506114516 59 0 2.6 10.4 0.00 0.00 0.00 58 1009.2
20260506113016 59 23 2.6 7.8 0.00 0.00 0.00 62 1009.2
20260506111516 58 45 1.7 9.6 0.00 0.00 0.00 67 1009.2
20260506110016 58 23 1.7 7.8 0.00 0.00 0.00 66 1009.2
20260506104516 58 23 1.7 7.8 0.00 0.00 0.00 68 1009.2
20260506103016 58 23 2.6 8.7 0.00 0.00 0.00 66 1009.2
20260506101516 58 0 0.9 5.2 0.00 0.00 0.00 70 1009.2
20260506100016 57 23 2.6 7.0 0.00 0.00 0.00 70 1009.1
20260506094518 56 23 0.9 5.2 0.00 0.00 0.00 76 1009.1
20260506093018 56 0 1.7 5.2 0.00 0.00 0.00 78 1009.1
20260506091518 55 0 0.9 6.1 0.00 0.00 0.00 80 1009.2
20260506090018 55 0 1.7 5.2 0.00 0.00 0.00 81 1009.0
20260506084518 55 0 1.7 6.1 0.00 0.00 0.00 80 1008.9
20260506083018 54 23 1.7 7.8 0.00 0.00 0.00 81 1008.9
20260506081518 54 23 1.7 7.0 0.00 0.00 0.00 83 1008.8
20260506073018 51 0 0.9 5.2 0.00 0.00 0.00 92 1008.7
20260506071518 50 0.0 2.6 0.00 0.00 0.00 93 1008.7
20260506061538 49 0.0 2.6 0.00 0.00 0.00 92 1008.5
20260506044517 49 23 0.9 4.3 0.00 0.00 0.00 87 1008.4
20260506043017 49 23 0.9 7.0 0.00 0.00 0.00 86 1008.4
20260506041518 49 23 1.7 7.0 0.00 0.00 0.00 85 1008.3
20260506040018 49 0 0.9 7.0 0.00 0.00 0.00 85 1008.4
20260506034538 49 0 1.7 5.2 0.00 0.00 0.00 86 1008.3
20260506033018 49 23 1.7 9.6 0.00 0.00 0.00 87 1008.5
20260506031518 48 0 0.9 4.3 0.00 0.00 0.00 88 1008.5
20260506030017 48 0.0 4.3 0.00 0.00 0.00 88 1008.6
20260506024518 47 0.0 4.3 0.00 0.00 0.00 88 1008.7
20260506023018 47 0.0 2.6 0.00 0.00 0.00 87 1008.7
20260506021517 48 0.0 3.5 0.00 0.00 0.00 87 1008.8
20260506020018 47 0.0 2.6 0.00 0.00 0.00 87 1008.8
20260506014518 47 0.0 1.7 0.00 0.00 0.00 86 1008.9
20260506013018 47 0.0 2.6 0.00 0.00 0.00 86 1008.9
20260506011517 47 0.0 2.6 0.00 0.00 0.00 85 1009.0
20260506010018 47 0.0 1.7 0.00 0.00 0.00 85 1009.0
20260506004537 48 0.0 2.6 0.00 0.00 0.00 84 1009.2
20260506003018 48 0.0 3.5 0.00 0.00 0.00 84 1009.3
20260506001557 48 23 0.9 6.1 0.00 0.00 0.00 83 1009.3
20260506000018 48 23 0.9 4.3 0.00 0.00 0.00 84 1009.5
20260505234543 48 23 0.9 6.1 0.00 0.00 0.00 84 1009.5
20260505233018 48 0.0 4.3 0.00 0.00 0.00 84 1009.5
20260505231517 49 0.0 5.2 0.00 0.00 0.00 84 1009.5
20260505230037 49 0.0 3.5 0.00 0.00 0.00 84 1009.6
20260505224517 49 0.0 4.3 0.00 0.00 0.00 83 1009.6
20260505223018 50 23 0.9 5.2 0.00 0.00 0.00 83 1009.7
20260505221517 50 23 0.9 4.3 0.00 0.00 0.00 82 1009.7
20260505220018 50 23 0.9 5.2 0.00 0.00 0.00 81 1009.7
20260505214516 51 23 0.9 5.2 0.00 0.00 0.00 80 1009.6
20260505213036 51 23 1.7 7.0 0.00 0.00 0.00 79 1009.7
20260505211516 51 23 1.7 7.8 0.00 0.00 0.00 79 1009.7
20260505210016 51 23 1.7 7.0 0.00 0.00 0.00 79 1009.7
20260505204556 52 0 0.9 7.0 0.00 0.00 0.00 78 1009.8